When you browse on this site, cookies collect data to enhance your experience and personalize the content and advertising you see.
Visit our Privacy Policy to learn more. By continuing to use the site, you agree to this use of cookies and data.
EN

Hourly Weather Wien

Today, 28 September, Monday

Time Temperature Precipitation Wind Pressure Humidity
00:00 +12°C° 0 mm 2 mps 738 mmHg 66%
01:00 +12°C° 0 mm 2 mps 739 mmHg 62%
02:00 +10°C° 1.4 mm 2 mps 738 mmHg 71%
03:00 +9°C° 1.4 mm 3 mps 738 mmHg 79%
04:00 +9°C° 1.4 mm 3 mps 737 mmHg 87%
05:00 +8°C° 2 mm 4 mps 737 mmHg 88%
06:00 +8°C° 2 mm 4 mps 737 mmHg 89%
07:00 +8°C° 0 mm 4 mps 737 mmHg 90%
08:00 +10°C° 0.3 mm 4 mps 737 mmHg 88%
09:00 +10°C° 0.3 mm 3 mps 737 mmHg 86%
10:00 +11°C° 0.3 mm 3 mps 737 mmHg 84%
11:00 +12°C° 0.4 mm 3 mps 737 mmHg 82%
12:00 +13°C° 0.4 mm 2 mps 738 mmHg 81%
13:00 +14°C° 0.4 mm 2 mps 738 mmHg 79%
14:00 +13°C° 0.3 mm 3 mps 738 mmHg 81%
15:00 +13°C° 0.3 mm 3 mps 738 mmHg 83%
16:00 +13°C° 0.3 mm 4 mps 738 mmHg 85%
17:00 +12°C° 0.3 mm 3 mps 738 mmHg 86%
18:00 +12°C° 0.3 mm 3 mps 739 mmHg 88%
19:00 +11°C° 0.3 mm 3 mps 739 mmHg 90%
20:00 +11°C° 0.6 mm 4 mps 739 mmHg 89%
21:00 +10°C° 0.6 mm 5 mps 739 mmHg 89%
22:00 +10°C° 0.6 mm 5 mps 740 mmHg 88%
23:00 +10°C° 0.3 mm 5 mps 740 mmHg 87%

Tomorrow, 29 September, Tuesday

Time Temperature Precipitation Wind Pressure Humidity
00:00 +10°C° 0.3 mm 5 mps 740 mmHg 86%
01:00 +9°C° 0.3 mm 5 mps 741 mmHg 85%
02:00 +9°C° 0.1 mm 5 mps 741 mmHg 85%
03:00 +9°C° 0.1 mm 5 mps 741 mmHg 84%
04:00 +9°C° 0.1 mm 5 mps 741 mmHg 84%
05:00 +9°C° 0 mm 5 mps 741 mmHg 83%
06:00 +9°C° 0 mm 5 mps 742 mmHg 82%
07:00 +10°C° 0 mm 5 mps 742 mmHg 82%
08:00 +10°C° 0 mm 5 mps 742 mmHg 77%
09:00 +12°C° 0 mm 5 mps 742 mmHg 73%
10:00 +13°C° 0 mm 5 mps 742 mmHg 69%
11:00 +14°C° 0 mm 5 mps 742 mmHg 67%
12:00 +14°C° 0 mm 5 mps 742 mmHg 64%
13:00 +15°C° 0 mm 5 mps 742 mmHg 62%
14:00 +15°C° 0 mm 5 mps 742 mmHg 63%
15:00 +14°C° 0 mm 4 mps 742 mmHg 64%
16:00 +14°C° 0 mm 3 mps 742 mmHg 65%
17:00 +14°C° 0 mm 3 mps 742 mmHg 68%
18:00 +13°C° 0 mm 3 mps 742 mmHg 72%
19:00 +13°C° 0 mm 4 mps 743 mmHg 75%
20:00 +13°C° 0.2 mm 4 mps 743 mmHg 76%
21:00 +12°C° 0.2 mm 4 mps 743 mmHg 78%
22:00 +12°C° 0.2 mm 4 mps 743 mmHg 79%
23:00 +12°C° 0.1 mm 5 mps 743 mmHg 79%

Day after tomorrow, 30 September, Wednesday

Time Temperature Precipitation Wind Pressure Humidity
00:00 +12°C° 0.1 mm 5 mps 743 mmHg 79%
01:00 +12°C° 0.1 mm 5 mps 742 mmHg 78%
02:00 +12°C° 0 mm 5 mps 742 mmHg 78%
03:00 +11°C° 0 mm 6 mps 742 mmHg 78%
04:00 +11°C° 0 mm 6 mps 742 mmHg 77%
05:00 +11°C° 0 mm 6 mps 742 mmHg 77%
06:00 +11°C° 0 mm 6 mps 742 mmHg 77%
07:00 +11°C° 0 mm 6 mps 742 mmHg 77%
08:00 +11°C° 0.1 mm 6 mps 741 mmHg 77%
09:00 +11°C° 0.1 mm 6 mps 741 mmHg 76%
10:00 +13°C° 0.1 mm 6 mps 741 mmHg 75%
11:00 +13°C° 0.1 mm 5 mps 741 mmHg 76%
12:00 +13°C° 0.1 mm 5 mps 741 mmHg 77%
13:00 +13°C° 0.1 mm 5 mps 740 mmHg 78%
14:00 +13°C° 0.1 mm 4 mps 740 mmHg 80%
15:00 +13°C° 0.1 mm 4 mps 740 mmHg 81%
16:00 +13°C° 0.1 mm 3 mps 739 mmHg 82%
17:00 +13°C° 0.1 mm 3 mps 739 mmHg 83%
18:00 +13°C° 0.1 mm 3 mps 739 mmHg 83%
19:00 +13°C° 0.1 mm 3 mps 740 mmHg 83%
20:00 +13°C° 0.2 mm 3 mps 739 mmHg 84%
21:00 +13°C° 0.2 mm 3 mps 739 mmHg 85%
22:00 +13°C° 0.2 mm 3 mps 739 mmHg 85%
23:00 +13°C° 0.3 mm 4 mps 739 mmHg 85%

1 October, Thursday

Time Temperature Precipitation Wind Pressure Humidity
00:00 +13°C° 0.3 mm 4 mps 738 mmHg 85%
01:00 +13°C° 0.3 mm 5 mps 738 mmHg 85%
02:00 +12°C° 0.3 mm 5 mps 738 mmHg 85%
03:00 +12°C° 0.3 mm 5 mps 737 mmHg 85%
04:00 +12°C° 0.3 mm 5 mps 737 mmHg 86%
05:00 +12°C° 0.3 mm 5 mps 737 mmHg 86%
06:00 +12°C° 0.3 mm 4 mps 737 mmHg 86%
07:00 +12°C° 0.3 mm 4 mps 736 mmHg 86%
08:00 +12°C° 0.1 mm 4 mps 736 mmHg 85%
09:00 +13°C° 0.1 mm 4 mps 736 mmHg 84%
10:00 +13°C° 0.1 mm 4 mps 736 mmHg 83%
11:00 +14°C° 0 mm 4 mps 735 mmHg 81%
12:00 +14°C° 0 mm 3 mps 735 mmHg 78%
13:00 +16°C° 0 mm 3 mps 735 mmHg 75%
14:00 +16°C° 0 mm 3 mps 735 mmHg 74%
15:00 +17°C° 0 mm 2 mps 734 mmHg 72%
16:00 +18°C° 0 mm 2 mps 734 mmHg 71%
17:00 +17°C° 0 mm 2 mps 735 mmHg 74%
18:00 +16°C° 0 mm 1 mps 735 mmHg 78%
19:00 +15°C° 0 mm 1 mps 735 mmHg 81%
20:00 +15°C° 0 mm 1 mps 735 mmHg 81%
21:00 +15°C° 0 mm 1 mps 735 mmHg 82%
22:00 +15°C° 0 mm 1 mps 735 mmHg 82%
23:00 +15°C° 0 mm 1 mps 735 mmHg 82%

2 October, Friday

Time Temperature Precipitation Wind Pressure Humidity
00:00 +15°C° 0 mm 1 mps 735 mmHg 81%
01:00 +15°C° 0 mm 1 mps 735 mmHg 81%
02:00 +13°C° 0 mm 0 mps 735 mmHg 83%
03:00 +13°C° 0 mm 0 mps 735 mmHg 84%
04:00 +12°C° 0 mm 0 mps 735 mmHg 86%
05:00 +12°C° 0 mm 0 mps 736 mmHg 86%
06:00 +12°C° 0 mm 0 mps 736 mmHg 85%
07:00 +13°C° 0 mm 0 mps 736 mmHg 85%
08:00 +15°C° 0 mm 1 mps 736 mmHg 80%
09:00 +17°C° 0 mm 2 mps 735 mmHg 75%
10:00 +18°C° 0 mm 3 mps 735 mmHg 70%
11:00 +19°C° 0 mm 4 mps 735 mmHg 67%
12:00 +19°C° 0 mm 4 mps 735 mmHg 65%
13:00 +20°C° 0 mm 5 mps 735 mmHg 62%
14:00 +20°C° 0 mm 5 mps 735 mmHg 64%
15:00 +19°C° 0 mm 5 mps 734 mmHg 65%
16:00 +19°C° 0 mm 6 mps 734 mmHg 67%
17:00 +19°C° 0 mm 6 mps 734 mmHg 70%
18:00 +17°C° 0 mm 6 mps 734 mmHg 74%
19:00 +17°C° 0 mm 6 mps 734 mmHg 77%
20:00 +16°C° 0 mm 5 mps 734 mmHg 78%
21:00 +16°C° 0 mm 5 mps 734 mmHg 79%
22:00 +15°C° 0 mm 4 mps 734 mmHg 80%
23:00 +15°C° 0 mm 4 mps 733 mmHg 80%

3 October, Saturday

Time Temperature Precipitation Wind Pressure Humidity
00:00 +15°C° 0 mm 4 mps 733 mmHg 81%
01:00 +14°C° 0 mm 3 mps 733 mmHg 82%
02:00 +14°C° 0 mm 3 mps 733 mmHg 83%
03:00 +14°C° 0 mm 3 mps 733 mmHg 84%
04:00 +15°C° 0 mm 2 mps 733 mmHg 85%
05:00 +15°C° 0 mm 2 mps 733 mmHg 84%
06:00 +15°C° 0 mm 2 mps 733 mmHg 84%
07:00 +15°C° 0 mm 2 mps 733 mmHg 83%
08:00 +17°C° 0 mm 3 mps 733 mmHg 75%
09:00 +19°C° 0 mm 5 mps 733 mmHg 67%
10:00 +21°C° 0 mm 6 mps 733 mmHg 59%
11:00 +23°C° 0 mm 6 mps 733 mmHg 54%
12:00 +26°C° 0 mm 6 mps 733 mmHg 48%
13:00 +27°C° 0 mm 6 mps 733 mmHg 43%
14:00 +27°C° 0 mm 5 mps 733 mmHg 45%
15:00 +26°C° 0 mm 5 mps 733 mmHg 48%
16:00 +26°C° 0 mm 5 mps 733 mmHg 51%
17:00 +25°C° 0 mm 5 mps 733 mmHg 54%
18:00 +23°C° 0 mm 6 mps 734 mmHg 58%
19:00 +22°C° 0 mm 6 mps 734 mmHg 61%
20:00 +21°C° 0 mm 6 mps 734 mmHg 62%
21:00 +21°C° 0 mm 5 mps 734 mmHg 63%
22:00 +21°C° 0 mm 5 mps 734 mmHg 64%
23:00 +20°C° 0 mm 5 mps 734 mmHg 66%
Show more